CZ-3B DEB, 39333

Orbit data source: Space-Track

CZ-3B DEB, 39333 is space debris in HEO originally from a launch on Sat, 04 Sep 2010 UTC launched from the Xichang Space Center, China (XSC). Debris objects in space refer to the collection of defunct objects orbiting the Earth. Examples of debris include non-operational satellites, rocket bodies, and fragments generated from explosions, collisions, or faulty payload assembly.

Loading next visibility...
Identifier
39333, 2010-042E
Orbit
HEO
Country
Flag of CNCN / PRC
Related business
Manufacturer
CALT
Mission
Spacecraft
Bus & Motor
Unknown
Mass
Unknown
Launch date (UTC)
2010-09-04 (16 years ago)
Launch vehicle
Unknown
Launch site
Xichang Space Center, China (XSC)
Object type
Payload
Rocket body
Debris
Shape & HBR
Unknown shape, 0.3 m
Radar Cross Section
Medium (>0.1 m² and <1 m²)

Expand to show TLE details & history
Last TLE update: 1 day ago

TLE from 1 day ago
0 CZ-3B DEB
1 39333U 10042E   26254.14478066 -.00000136  00000-0  32426-2 0  9993
2 39333  24.5638 353.9823 7460414 177.5772 209.3924  1.91302080 91762
Epoch: 2026-09-11T03:28Z
TLE epoch observation values (Epoch: 2026-09-11T03:28:29.049Z)
Latitude
1.67046°
Longitude
-44.65442°
Altitude
40,630.823 km
Speed
1.555 km/s
True Right ascension
23h 50m 33s
True Declination
1° 40' 08"
Sunlit
Object was in daylight at epoch
Visualization orbit readout
Latitude
Unknown
Longitude
Unknown
Altitude
Unknown
Speed
Unknown
Apparent Right ascension
Unknown
Apparent Declination
Unknown
Sunlit
N/A
Visualization observer readout
Local Sidereal Time
19:43:54
Azimuth
Unknown
Elevation
Unknown
Doppler factor
Unknown
Orbital elements
Apogee altitude
41,489.36 km
Perigee altitude
584.105 km
Semi-major axis
27,414.869 km
Eccentricity
0.74604
Inclination
24.5638°
RAAN
353.9823°
Arg. of periapsis
177.5772°
True anomaly
186.50051°
Mean anomaly
209.3924°
Eccentric anomaly
196.9387°
Mean motion
0.47815 °/min
Orbital period
752.9 mins
BSTAR
0.0032426
Loading maneuver chart data...
Computing Atmospheric mass density...
Loading historical data...
Loading historical data...
Loading historical data...
Loading historical data...
Loading historical data...
Loading historical data...
Loading historical data...

Documentation

Showing up to 5 results
|